DELTA 1 DEB, 10750

Orbit data source: Space-Track

DELTA 1 DEB, 10750 is space debris in SSO originally from a launch on Thu, 29 Jul 1976 UTC launched from the Air Force Western Test Range (AFWTR). Debris objects in space refer to the collection of defunct objects orbiting the Earth. Examples of debris include non-operational satellites, rocket bodies, and fragments generated from explosions, collisions, or faulty payload assembly.

Loading next visibility...
Identifier
10750, 1976-077AX
Orbit
SSO
Country
Flag of USUS
Related business
Manufacturer
Unknown
Mission
Spacecraft
Bus & Motor
Unknown
Mass
Unknown
Launch date (UTC)
1976-07-29 (50 years ago)
Launch vehicle
Unknown
Launch site
Air Force Western Test Range (AFWTR)
Object type
Payload
Rocket body
Debris
Shape & HBR
Unknown shape, 0.1 m
Radar Cross Section
Medium (>0.1 m² and <1 m²)

Expand to show TLE details & history
Last TLE update: 1 day ago

TLE from 1 day ago
0 DELTA 1 DEB
1 10750U 76077AX  26254.91109124  .00004107  00000-0  24133-2 0  9993
2 10750 101.6458 236.1484 0373696 283.9690  72.0172 13.79142979377603
Epoch: 2026-09-11T21:51Z
TLE epoch observation values (Epoch: 2026-09-11T21:51:58.283Z)
Latitude
-0.00005°
Longitude
-82.77209°
Altitude
894.365 km
Speed
7.443 km/s
True Right ascension
15h 44m 35s
True Declination
0° 00' 00"
Sunlit
Object was in daylight at epoch
Visualization orbit readout
Latitude
Unknown
Longitude
Unknown
Altitude
Unknown
Speed
Unknown
Apparent Right ascension
Unknown
Apparent Declination
Unknown
Sunlit
N/A
Visualization observer readout
Local Sidereal Time
17:33:58
Azimuth
Unknown
Elevation
Unknown
Doppler factor
Unknown
Orbital elements
Apogee altitude
1,238.68 km
Perigee altitude
689.912 km
Semi-major axis
7,342.433 km
Eccentricity
0.03737
Inclination
101.6458°
RAAN
236.1484°
Arg. of periapsis
283.969°
True anomaly
76.14623°
Mean anomaly
72.0172°
Eccentric anomaly
74.07616°
Mean motion
3.44971 °/min
Orbital period
104.36 mins
BSTAR
0.0024133
Loading maneuver chart data...
Computing Atmospheric mass density...
Loading historical data...
Loading historical data...
Loading historical data...
Loading historical data...
Loading historical data...
Loading historical data...
Loading historical data...

Documentation

Showing up to 5 results
|